Oak Ridge, TN

9:20 AM EDT on August 22, 2017 (GMT -0400)
Oak Ridge

Weather History for KOQT - April, 2014

Change the Weather History Date:

Monday, April 21, 2014

  Actual Average (KTYS) Record (KTYS)
Temperature  
Mean Temperature 64 °F -  
Max Temperature 80 °F 72 °F 88 °F (1946)
Min Temperature 48 °F 50 °F 27 °F (1983)
Degree Days  
Heating Degree Days 2    
Growing Degree Days 14 (Base 50)    
Moisture  
Dew Point 44 °F    
Average Humidity 51    
Maximum Humidity 83    
Minimum Humidity 29    
Precipitation  
Precipitation 0.00 in - - ()
Sea Level Pressure  
Sea Level Pressure 30.06 in    
Wind  
Wind Speed 2 mph (SW)    
Max Wind Speed 9 mph    
Max Gust Speed -    
Visibility 10 miles    
Events      
Averages and records for this station are not official NWS values.
T = Trace of Precipitation, MM = Missing Value Source: NWS Daily Summary

Daily Weather History Graph

Daily Weather History Graph

Search for Another Location

Airport or City:

Trip Planner

Search our weather history database for the weather conditions in past years. The results will help you decide how hot, cold, wet, or windy it might be!

Date:

Astronomy

Apr. 21, 2014 Rise Set
Actual Time 6:56 AM EDT 8:15 PM EDT
Civil Twilight 6:29 AM EDT 8:42 PM EDT
Nautical Twilight 5:57 AM EDT 9:14 PM EDT
Astronomical Twilight 5:23 AM EDT 9:48 PM EDT
Moon 1:42 AM EDT (4/21) 12:24 PM EDT (4/21)
Length of Visible Light 14h 13m
Length of Day
13h 19m
Waning Gibbous, 58% of the Moon is Illuminated
Apr 21
Waning Gibbous
Apr 22
Last Quarter
Apr 29
New
May 6
First Quarter
May 14
Full

Hourly Weather History & Observations

Time (EDT) Temp. Dew Point Humidity Pressure Visibility Wind Dir Wind Speed Gust Speed Precip Events Conditions
12:53 AM 55.0 °F 45.0 °F 69% 30.14 in 10.0 mi Calm Calm - N/A   Clear
1:53 AM 54.0 °F 46.0 °F 75% 30.13 in 10.0 mi Calm Calm - N/A   Clear
2:53 AM 52.0 °F 46.0 °F 80% 30.12 in 10.0 mi Calm Calm - N/A   Clear
3:53 AM 51.1 °F 45.0 °F 80% 30.13 in 10.0 mi Calm Calm - N/A   Clear
4:53 AM 51.1 °F 44.1 °F 77% 30.13 in 10.0 mi Calm Calm - N/A   Clear
5:53 AM 50.0 °F 44.1 °F 80% 30.14 in 10.0 mi Calm Calm - N/A   Clear
6:53 AM 48.9 °F 44.1 °F 83% 30.14 in 10.0 mi Calm Calm - N/A   Clear
7:53 AM 54.0 °F 45.0 °F 72% 30.16 in 10.0 mi Calm Calm - N/A   Clear
8:53 AM 57.0 °F 45.0 °F 64% 30.17 in 10.0 mi SW 3.5 mph - N/A   Clear
9:53 AM 64.0 °F 41.0 °F 43% 30.16 in 10.0 mi Variable 4.6 mph - N/A   Clear
10:53 AM 66.9 °F 39.9 °F 37% 30.14 in 10.0 mi WSW 8.1 mph - N/A   Clear
11:53 AM 71.1 °F 39.9 °F 32% 30.12 in 10.0 mi West 5.8 mph - N/A   Clear
12:53 PM 75.0 °F 42.1 °F 31% 30.09 in 10.0 mi Calm Calm - N/A   Clear
1:53 PM 78.1 °F 43.0 °F 29% 30.04 in 10.0 mi Variable 4.6 mph - N/A   Clear
2:53 PM 78.1 °F 43.0 °F 29% 30.01 in 10.0 mi South 9.2 mph - N/A   Clear
3:53 PM 79.0 °F 44.1 °F 29% 29.99 in 10.0 mi North - - N/A   Clear
4:53 PM 79.0 °F 44.1 °F 29% 29.97 in 10.0 mi Variable 6.9 mph - N/A   Clear
5:53 PM 78.1 °F 44.1 °F 30% 29.96 in 10.0 mi SSW 6.9 mph - N/A   Clear
6:53 PM 77.0 °F 45.0 °F 32% 29.95 in 10.0 mi South 9.2 mph - N/A   Clear
7:53 PM 75.0 °F 46.0 °F 36% 29.94 in 10.0 mi SSW 5.8 mph - N/A   Clear
8:53 PM 73.0 °F 46.0 °F 38% 29.94 in 10.0 mi Calm Calm - N/A   Clear
9:53 PM 70.0 °F 46.9 °F 44% 29.94 in 10.0 mi West 3.5 mph - N/A   Scattered Clouds
10:53 PM 66.9 °F 48.9 °F 52% 29.94 in 10.0 mi Calm Calm - N/A   Partly Cloudy
11:53 PM 66.0 °F 48.9 °F 54% 29.92 in 10.0 mi Calm Calm - N/A   Overcast